Location: Newark
(47.5833°N, 8.1500°E)
Time: 22:55:31
(UTC+00:00)

Vanguard 1 - Pass Details

Date: 01 November 2020
Orbit: 650 x 3833 km, 34.2° (Epoch: 29 November)

Event Time Altitude Azimuth Distance (km) Brightness Sun altitude
Rises 12:59:46 0° 251° (WSW) 7,445 15.3 23.2°
Reaches altitude 10° 13:04:35 10° 248° (WSW) 6,656 15.2 22.8°
Maximum altitude 13:26:45 56° 179° (S) 4,170 14.1 20.7°
Drops below altitude 10° 13:45:25 10° 108° (ESE) 5,728 13.8 18.8°
Sets 13:49:10 0° 104° (ESE) 6,401 14.0 18.4°
